Flag for Switzerland Weather past 2 weeks in Schaffhausen, Schaffhausen, Switzerland

Now
65 °F

Mild.


Feels Like: 65 °F
Forecast: 57 / 75 °F
Wind: 3 mph from Northwest

Location: Zurich-Kloten

Current Time: Jul 30, 2014 at 10:16:39 PM

Latest Report: Jul 30, 2014 at 9:00 PM


Visibility: N/A

Pressure: 29.90 "Hg

Humidity: 93%

Dew point: 63 °F

Location of SchaffhausenLocation

Historic Weather in Schaffhausen — Graph

°F

Schaffhausen temperature yesterday

Maximum temperature yesterday: 68 °F (at 5:00 PM)
Minimum temperature yesterday: 58 °F (at 7:00 AM)
Average temperature yesterday: 61 °F

Past Weeks' High & Low Weather Summary

 TemperatureHumidityPressure
High90 °F (Jul 19, 6:00 PM)100% (Jul 23, 1:00 AM)30.21 "Hg (Jul 23, 1:00 AM)
Low51 °F (Jul 19, 6:00 AM)24% (Jul 18, 5:00 PM)29.72 "Hg (Jul 28, 5:00 PM)
Average67 °F77%29.94 "Hg
* Reported Jul 15 9:00 PM — Jul 30 9:00 PM, Schaffhausen, Weather by CustomWeather, © 2014

Note: Actual official high and low records may vary slightly from our data, if they occured in-between our weather recording intervals... More about our weather records

Advertising

Schaffhausen weather history for previous 24 hours

 ConditionsComfort  
Time TempWeatherWind HumidityBarometerVisibility
9:00 PM
Jul 30
65 °FMild.3 mph93%29.90 "HgN/A
8:00 PM66 °FSprinkles. Low clouds.5 mph94%29.89 "Hg9 mi
7:00 PM65 °FMild.6 mph93%29.88 "HgN/A
6:00 PM65 °FMild.3 mph92%29.88 "HgN/A
5:00 PM65 °FFog.6 mph89%29.87 "Hg16 mi
4:00 PM65 °FMild.7 mph85%29.87 "HgN/A
3:00 PM65 °FMild.7 mph84%29.87 "HgN/A
2:00 PM64 °FDrizzle. Overcast.7 mph88%29.87 "Hg9 mi
1:00 PM63 °FMild.10 mph88%29.86 "HgN/A
12:00 PM62 °FCool.7 mph88%29.85 "HgN/A
11:00 AM60 °FLight rain. Low clouds.5 mph95%29.85 "Hg2 mi
10:00 AM60 °FCool.5 mph95%29.85 "HgN/A
9:00 AM60 °FCool.3 mph97%29.84 "HgN/A
8:00 AM60 °FLight rain. Low clouds.2 mph96%29.83 "Hg2 mi
7:00 AM60 °FCool.2 mph96%29.82 "HgN/A
6:00 AM61 °FCool.2 mph90%29.82 "HgN/A
5:00 AM60 °FOvercast.5 mph92%29.81 "Hg16 mi
4:00 AM60 °FCool.1 mph94%29.82 "HgN/A
3:00 AM60 °FCool.2 mph91%29.84 "HgN/A
2:00 AM61 °FOvercast.3 mph88%29.83 "Hg16 mi
1:00 AM61 °FCool.5 mph90%29.83 "HgN/A
12:00 AM60 °FCool.2 mph92%29.83 "HgN/A
11:00 PM
Jul 29
63 °FPassing clouds.2 mph85%29.83 "Hg16 mi
10:00 PM60 °FCool.6 mph92%29.83 "HgN/A
Weather by CustomWeather, © 2014

See weather overviewHow to use our weather pages